SL-14 R/B, 24731

Orbit data source: Space-Track

SL-14 R/B, 24731 is space debris in LEO originally from a launch on Fri, 14 Feb 1997 UTC launched from the Plesetsk Missile And Space Complex (PKMTR). Debris objects in space refer to the collection of defunct objects orbiting the Earth. Examples of debris include non-operational satellites, rocket bodies, and fragments generated from explosions, collisions, or faulty payload assembly.

Loading next visibility...
Identifier
24731, 1997-006G
Orbit
LEO
Country
Flag of CISCIS
Related business
Manufacturer
Yuzhnoe
Mission
Spacecraft
Bus & Motor
S5M, Unknown motor
Mass
1,600 kg wet, 1,600 kg dry
Launch date (UTC)
1997-02-14 (29 years ago)
Launch vehicle
Unknown
Launch site
Plesetsk Missile And Space Complex (PKMTR)
Object type
Payload
Rocket body
Debris
Shape & HBR
Cyl, 1.4 m
Radar Cross Section
7.351 m², Large (>1 m²)

Expand to show TLE details & history
Last TLE update: 10 hours ago

TLE from 10 hours ago
0 SL-14 R/B
1 24731U 97006G   25261.15280438  .00000021  00000-0  66646-4 0  9991
2 24731  82.6028 150.6050 0040289 274.2454 241.6096 12.55269090309901
Epoch: 2025-09-18T03:40Z
TLE epoch observation values (Epoch: 2025-09-18T03:40:02.298Z)
Latitude
24.35566°
Longitude
-85.0758°
Altitude
1,460.406 km
Speed
7.127 km/s
True Right ascension
21h 49m 00s
True Declination
24° 14' 18"
Sunlit
Object was in full shadow at epoch
Visualization orbit readout
Latitude
Unknown
Longitude
Unknown
Altitude
Unknown
Speed
Unknown
Apparent Right ascension
Unknown
Apparent Declination
Unknown
Sunlit
N/A
Visualization observer readout
Local Sidereal Time
06:40:44
Azimuth
Unknown
Elevation
Unknown
Doppler factor
Unknown
Orbital elements
Apogee altitude
1,471.36 km
Perigee altitude
1,408.365 km
Semi-major axis
7,818 km
Eccentricity
0.00403
Inclination
82.6028°
RAAN
150.605°
Arg. of periapsis
274.2454°
True anomaly
241.20442°
Mean anomaly
241.6096°
Eccentric anomaly
241.40691°
Mean motion
3.13978 °/min
Orbital period
114.66 mins
BSTAR
0.000066646
Loading maneuver chart data...
Computing Atmospheric mass density...
Loading historical data...
Loading historical data...
Loading historical data...
Loading historical data...
Loading historical data...
Loading historical data...
Loading historical data...

Documentation

Showing up to 5 results
|